Regional Weather Roundup
Issued by NWS

Home | Current Version | Previous Version | Graphics & Text | Print | Product List | Glossary On
Versions: 1 2 3 4 5 6 7 8 9 10 11 12 13 14 15 16 17 18 19 20 21 22 23 24 25 26 27 28 29 30 31 32 33 34 35 36 37 38 39 40 41 42 43 44 45 46 47 48 49 50
810
ASUS43 KOAX 271902
RWRNE

WEATHER ROUNDUP FOR NEBRASKA
NATIONAL WEATHER SERVICE OMAHA NE
200 PM CDT SAT MAY 27 2017

NOTES: SATELLITE DATA IS BEING USED TO AUGMENT CLOUD COVER ABOVE
       12000 FEET.
       "FAIR" INDICATES FEW OR NO CLOUDS BELOW 12,000 FEET WITH NO
       SIGNIFICANT WEATHER AND/OR OBSTRUCTIONS TO VISIBILITY.

  * THESE STATIONS DO NOT REPORT WEATHER SUCH AS RAIN...SNOW OR FOG.

NEZ001>004-019>022-054>056-272000-
NEBRASKA PANHANDLE

CITY           SKY/WX    TMP DP  RH WIND       PRES   REMARKS
SCOTTSBLUFF    MOSUNNY   63  43  48 N8        30.08S
ALLIANCE       CLOUDY    60  43  53 N14G30    30.06S
CHADRON        CLOUDY    62  42  47 N10       30.05S
GORDON         MOCLDY    63  43  47 N9        30.04S
KIMBALL        PTSUNNY   59  42  52 N15       30.10F
SIDNEY         PTSUNNY   59  45  59 NW15      30.08S
$$

NEZ057>060-069>072-079>082-272000-
SOUTHWEST NEBRASKA

CITY           SKY/WX    TMP DP  RH WIND       PRES   REMARKS
NORTH PLATTE   CLOUDY    61  55  81 N7        30.02R
IMPERIAL       CLOUDY    63  49  60 MISG      30.03S
LEXINGTON      CLOUDY    67  54  62 N12       29.97R
MCCOOK         CLOUDY    68  55  63 N16       29.98R
OGALLALA       LGT RAIN  61  52  72 N7        30.04F
$$

NEZ005>010-023>029-035>040-094-272000-
NORTH CENTRAL NEBRASKA

CITY           SKY/WX    TMP DP  RH WIND       PRES   REMARKS
VALENTINE      CLOUDY    62  49  62 NW7       30.02F
AINSWORTH      CLOUDY    55  52  89 CALM      30.03S
BROKEN BOW     CLOUDY    65  52  62 N12       29.98F
O`NEILL        PTSUNNY   64  50  61 NW15      30.00R
ORD            CLOUDY    68  47  46 NW5       29.95S
THEDFORD       CLOUDY    57  51  79 N5        30.04S
$$

NEZ041-046>049-061>064-073>077-083>087-272000-
SOUTH CENTRAL NEBRASKA

CITY           SKY/WX    TMP DP  RH WIND       PRES   REMARKS
GRAND ISLAND   SUNNY     73  49  42 NE7G17    29.92F
AURORA         SUNNY     73  46  39 NE10      29.90F
HASTINGS       SUNNY     72  53  51 NE13      29.92F
HEBRON         MOSUNNY   71  59  65 N10       29.87F
HOLDREGE       MOSUNNY   69  51  52 N12G18    29.94S
KEARNEY *      MOSUNNY   72  52  49 NW12      29.93F
YORK           SUNNY     73  50  43 NE12G20   29.89F
$$

NEZ011>018-030>034-042>045-272000-
NORTHEAST NEBRASKA

CITY           SKY/WX    TMP DP  RH WIND       PRES   REMARKS
NORFOLK        PTSUNNY   71  47  42 NE10      29.91S
ALBION         CLOUDY    71  49  46 N6        29.93F
BLAIR          MOSUNNY   69  54  57 NE17      29.87F
FREMONT        SUNNY     73  47  39 NE13      29.88F
TEKAMAH        SUNNY     75  48  38 NE14G21   29.87F
WAYNE          MOSUNNY   70  49  47 NE15      29.92F
$$

NEZ050>053-065>068-078-088>093-272000-
SOUTHEAST NEBRASKA

CITY           SKY/WX    TMP DP  RH WIND       PRES   REMARKS
LINCOLN        MOSUNNY   70  59  68 NE9       29.88F
OMAHA EPPLEY   PTSUNNY   71  58  63 NE10      29.87F
BEATRICE       PTSUNNY   69  60  74 N14       29.85F
FALLS CITY     CLOUDY    68  62  81 N9        29.80F
NEBRASKA CITY  CLOUDY    68  60  77 NE14G20   29.84F
PLATTSMOUTH    PTSUNNY   69  60  75 NE7       29.86F
$$

NEZ044-045-051>053-067-272000-
OMAHA AREA

CITY           SKY/WX    TMP DP  RH WIND       PRES   REMARKS
OMAHA EPPLEY   PTSUNNY   71  58  63 NE10      29.87F
BLAIR          MOSUNNY   69  54  57 NE17      29.87F
FREMONT        SUNNY     73  47  39 NE13      29.88F
MILLARD        PTSUNNY   70  60  69 NE7       29.87S
OFFUTT AFB     MOSUNNY   69  60  72 NE10      29.85F
PLATTSMOUTH    PTSUNNY   69  60  75 NE7       29.86F
WAHOO          FAIR      74  47  38 NE13G20   29.87F
$$




USA.gov is the U.S. government's official web portal to all federal, state and local government web resources and services.